EW7230 Weather Reports


time (UTC)temp
F
wind
direction
speed
knots
gust
knots
rain 1hr
in
rain 24hr
in
rain mn
in
humidity
%
barometer
mb
20260507233534 37 104 0.0 0.0 0.00 0.00 0.00 58 1017.0
20260507233033 37 104 0.0 0.0 0.00 0.00 0.00 58 1017.0
20260507232533 37 104 0.0 0.0 0.00 0.00 0.00 58 1016.9
20260507232030 38 104 0.0 0.0 0.00 0.00 0.00 59 1016.9
20260507231530 38 104 0.0 0.0 0.00 0.00 0.00 57 1016.9
20260507231029 38 104 0.0 0.0 0.00 0.00 0.00 57 1016.8
20260507230532 39 104 0.0 0.0 0.00 0.00 0.00 57 1016.7
20260507230026 39 104 0.0 0.0 0.00 0.00 0.00 54 1016.7
20260507225525 39 104 0.0 0.0 0.00 0.00 0.00 55 1016.6
20260507225025 39 104 0.0 0.0 0.00 0.00 0.00 55 1016.6
20260507224523 39 104 0.0 0.0 0.00 0.00 0.00 55 1016.6
20260507224022 40 104 0.0 0.0 0.00 0.00 0.00 56 1016.6
20260507223526 40 104 0.0 0.0 0.00 0.00 0.00 54 1016.6
20260507223021 40 104 0.0 0.0 0.00 0.00 0.00 55 1016.5
20260507222519 41 104 0.0 0.0 0.00 0.00 0.00 54 1016.5
20260507222017 41 104 0.0 0.0 0.00 0.00 0.00 53 1016.4
20260507221517 42 104 0.0 0.0 0.00 0.00 0.00 51 1016.4
20260507221014 42 104 0.0 0.0 0.00 0.00 0.00 51 1016.4
20260507220513 42 104 0.0 0.0 0.00 0.00 0.00 50 1016.4
20260507220013 42 104 0.0 0.0 0.00 0.00 0.00 50 1016.4
20260507215512 43 104 0.0 0.0 0.00 0.00 0.00 48 1016.4
20260507215012 43 104 0.0 0.0 0.00 0.00 0.00 50 1016.3
20260507214511 44 104 0.0 0.0 0.00 0.00 0.00 47 1016.3
20260507214011 44 104 0.0 0.0 0.00 0.00 0.00 46 1016.2
20260507213510 45 104 0.0 0.0 0.00 0.00 0.00 45 1016.2
20260507213010 46 104 0.0 0.0 0.00 0.00 0.00 45 1016.2
20260507212509 46 104 0.0 0.0 0.00 0.00 0.00 43 1016.1
20260507212010 47 104 0.0 0.0 0.00 0.00 0.00 40 1016.1
20260507211509 48 104 0.0 5.2 0.00 0.00 0.00 37 1016.0
20260507211009 48 119 0.0 6.1 0.00 0.00 0.00 38 1016.0
20260507210506 49 126 0.9 6.1 0.00 0.00 0.00 35 1015.8
20260507210006 49 123 0.0 8.7 0.00 0.00 0.00 36 1015.8
20260507205506 49 150 0.9 8.7 0.00 0.00 0.00 36 1015.8
20260507205006 49 105 1.7 8.7 0.00 0.00 0.00 36 1015.8
20260507204505 49 136 3.5 8.7 0.00 0.00 0.00 36 1015.7
20260507204005 49 100 2.6 7.0 0.00 0.00 0.00 37 1015.6
20260507203508 49 133 3.5 7.0 0.00 0.00 0.00 36 1015.5
20260507203003 49 140 1.7 7.8 0.00 0.00 0.00 37 1015.5
20260507202504 49 144 4.3 8.7 0.00 0.00 0.00 36 1015.5
20260507202002 49 126 2.6 8.7 0.00 0.00 0.00 36 1015.5
20260507201502 49 156 3.5 7.8 0.00 0.00 0.00 37 1015.4
20260507201101 49 98 0.9 6.1 0.00 0.00 0.00 36 1015.3
20260507200559 49 136 2.6 8.7 0.00 0.00 0.00 36 1015.3
20260507200502 49 135 1.7 9.6 0.00 0.00 0.00 37 1015.3
20260507200059 50 153 1.7 9.6 0.00 0.00 0.00 36 1015.2
20260507195559 50 129 3.5 8.7 0.00 0.00 0.00 35 1015.1
20260507195059 50 161 4.3 8.7 0.00 0.00 0.00 35 1015.1
20260507194558 50 130 3.5 9.6 0.00 0.00 0.00 35 1015.1
20260507194056 50 150 1.7 10.4 0.00 0.00 0.00 35 1015.0
20260507193556 51 156 2.6 9.6 0.00 0.00 0.00 36 1014.9
20260507193108 51 153 2.6 7.8 0.00 0.00 0.00 37 1014.8
20260507192555 51 114 0.9 9.6 0.00 0.00 0.00 36 1014.6
20260507192053 52 126 6.1 11.3 0.00 0.00 0.00 35 1014.5
20260507191552 52 113 7.0 15.6 0.00 0.00 0.00 35 1014.5
20260507191051 52 118 8.7 15.6 0.00 0.00 0.00 35 1014.4
20260507190552 52 107 7.0 12.2 0.00 0.00 0.00 35 1014.2
20260507190153 53 101 5.2 9.6 0.00 0.00 0.00 36 1014.2
20260507185551 53 88 3.5 11.3 0.00 0.00 0.00 36 1014.1
20260507185052 54 155 4.3 11.3 0.00 0.00 0.00 35 1014.0
20260507184550 54 126 5.2 11.3 0.00 0.00 0.00 36 1013.9
20260507184050 54 105 4.3 11.3 0.00 0.00 0.00 36 1013.7
20260507183550 54 97 2.6 9.6 0.00 0.00 0.00 37 1013.7
20260507183056 54 134 0.9 9.6 0.00 0.00 0.00 37 1013.6
20260507182553 54 142 1.7 7.8 0.00 0.00 0.00 36 1013.6
20260507182049 54 171 0.9 5.2 0.00 0.00 0.00 35 1013.5
20260507181550 54 135 0.0 2.6 0.00 0.00 0.00 36 1013.5
20260507181002 55 129 0.0 0.0 0.00 0.00 0.00 35 1013.3
20260507180540 55 129 0.0 0.0 0.00 0.00 0.00 34 1013.3
20260507180141 55 129 0.0 0.0 0.00 0.00 0.00 32 1013.2
20260507175633 55 129 0.0 0.9 0.00 0.00 0.00 33 1013.2
20260507175138 56 129 0.0 0.9 0.00 0.00 0.00 31 1013.2
20260507174628 56 167 0.0 0.0 0.00 0.00 0.00 31 1013.2
20260507174157 56 178 0.0 0.9 0.00 0.00 0.00 32 1013.1
20260507173152 57 234 0.0 4.3 0.00 0.00 0.00 31 1013.0
20260507172512 57 148 0.0 3.5 0.00 0.00 0.00 32 1013.0
20260507172012 57 136 0.0 0.9 0.00 0.00 0.00 29 1013.0
20260507171648 58 191 0.0 0.9 0.00 0.00 0.00 28 1013.0
20260507171100 58 144 0.0 0.9 0.00 0.00 0.00 28 1013.0
20260507170552 59 144 0.0 0.9 0.00 0.00 0.00 29 1013.0
20260507170120 59 132 0.0 2.6 0.00 0.00 0.00 29 1013.0
20260507165610 59 131 0.0 2.6 0.00 0.00 0.00 28 1012.9
20260507165101 59 198 0.0 1.7 0.00 0.00 0.00 28 1012.9
20260507164630 59 184 0.0 1.7 0.00 0.00 0.00 29 1012.9
20260507163051 59 137 0.0 0.0 0.00 0.00 0.00 26 1012.9
20260507162551 59 165 0.0 0.0 0.00 0.00 0.00 27 1012.9
20260507162053 59 118 0.0 1.7 0.00 0.00 0.00 27 1012.9
20260507161550 58 115 0.0 2.6 0.00 0.00 0.00 25 1013.0
20260507161052 58 139 0.0 5.2 0.00 0.00 0.00 27 1013.0
20260507160552 59 136 0.0 0.9 0.00 0.00 0.00 27 1013.0
20260507160149 58 138 0.0 0.9 0.00 0.00 0.00 27 1013.0
20260507155549 58 220 0.0 3.5 0.00 0.00 0.00 25 1013.0
20260507155048 57 139 0.0 3.5 0.00 0.00 0.00 25 1013.2
20260507154548 57 146 0.0 4.3 0.00 0.00 0.00 27 1013.1
20260507154047 57 123 0.0 4.3 0.00 0.00 0.00 26 1013.1
20260507153549 58 150 0.0 2.6 0.00 0.00 0.00 30 1013.1
20260507153051 57 164 0.0 1.7 0.00 0.00 0.00 29 1013.1
20260507152548 57 134 0.0 3.5 0.00 0.00 0.00 30 1013.1
20260507152046 57 132 0.9 3.5 0.00 0.00 0.00 26 1013.1
20260507151545 58 112 0.0 6.1 0.00 0.00 0.00 29 1013.1
20260507151047 58 192 1.7 6.1 0.00 0.00 0.00 26 1013.1
20260507150544 58 128 0.0 1.7 0.00 0.00 0.00 27 1013.1
20260507150044 58 221 0.0 6.1 0.00 0.00 0.00 28 1013.1
20260507145544 58 111 0.0 7.8 0.00 0.00 0.00 26 1013.0
20260507145043 58 173 0.9 7.8 0.00 0.00 0.00 28 1013.0
20260507144547 59 150 0.0 4.3 0.00 0.00 0.00 24 1013.1
20260507144041 59 150 0.0 6.1 0.00 0.00 0.00 26 1013.0
20260507143540 60 213 0.0 2.6 0.00 0.00 0.00 26 1013.1
20260507143041 60 217 0.0 2.6 0.00 0.00 0.00 29 1013.1
20260507142539 60 155 0.0 0.9 0.00 0.00 0.00 27 1013.1
20260507142038 60 135 0.0 0.9 0.00 0.00 0.00 27 1013.1
20260507141538 59 175 0.0 1.7 0.00 0.00 0.00 27 1013.1
20260507141037 59 175 0.0 5.2 0.00 0.00 0.00 32 1013.2
20260507140536 59 188 0.0 9.6 0.00 0.00 0.00 29 1013.1
20260507140048 59 139 0.0 6.1 0.00 0.00 0.00 26 1013.2
20260507135534 59 130 0.0 1.7 0.00 0.00 0.00 30 1013.2
20260507135034 59 87 0.0 1.7 0.00 0.00 0.00 28 1013.2
20260507134534 60 142 0.0 1.7 0.00 0.00 0.00 28 1013.2
20260507134032 60 216 0.0 1.7 0.00 0.00 0.00 27 1013.2
20260507133535 59 213 0.0 1.7 0.00 0.00 0.00 30 1013.2
20260507133031 58 236 0.0 1.7 0.00 0.00 0.00 28 1013.3
20260507132530 59 145 0.0 2.6 0.00 0.00 0.00 27 1013.4
20260507132129 59 200 0.0 2.6 0.00 0.00 0.00 30 1013.4
20260507131528 58 217 0.0 6.1 0.00 0.00 0.00 31 1013.4
20260507131028 58 116 0.0 6.1 0.00 0.00 0.00 29 1013.4
20260507130531 59 144 0.0 0.0 0.00 0.00 0.00 31 1013.4
20260507130027 59 150 0.0 2.6 0.00 0.00 0.00 26 1013.4
20260507125529 59 164 0.0 2.6 0.00 0.00 0.00 30 1013.5
20260507125025 59 223 0.0 2.6 0.00 0.00 0.00 30 1013.5
20260507124526 59 216 0.0 1.7 0.00 0.00 0.00 29 1013.5
20260507124024 59 147 0.0 1.7 0.00 0.00 0.00 34 1013.4
20260507123524 58 143 0.0 1.7 0.00 0.00 0.00 34 1013.5
20260507123024 58 178 0.0 0.0 0.00 0.00 0.00 30 1013.5
20260507122521 58 144 0.0 0.0 0.00 0.00 0.00 30 1013.5
20260507122021 57 165 0.0 6.1 0.00 0.00 0.00 29 1013.5
20260507121520 58 138 0.9 4.3 0.00 0.00 0.00 31 1013.5
20260507121021 57 137 0.0 0.9 0.00 0.00 0.00 31 1013.6
20260507120517 57 225 0.0 0.9 0.00 0.00 0.00 30 1013.6
20260507120017 56 138 0.0 3.5 0.00 0.00 0.00 32 1013.6
20260507115517 56 128 0.0 4.3 0.00 0.00 0.00 32 1013.6
20260507115016 56 146 0.9 4.3 0.00 0.00 0.00 32 1013.7
20260507114517 56 329 0.0 0.0 0.00 0.00 0.00 27 1013.7
20260507114015 56 340 0.0 0.0 0.00 0.00 0.00 33 1013.8
20260507113515 56 5 0.0 0.0 0.00 0.00 0.00 31 1013.7
20260507113014 55 334 0.0 0.0 0.00 0.00 0.00 33 1013.7
20260507112511 54 106 0.0 0.9 0.00 0.00 0.00 30 1013.8
20260507112012 54 125 0.0 0.9 0.00 0.00 0.00 30 1013.8
20260507111511 54 269 0.0 4.3 0.00 0.00 0.00 28 1014.0
20260507111009 54 355 0.9 4.3 0.00 0.00 0.00 35 1014.0
20260507110512 54 115 0.0 2.6 0.00 0.00 0.00 30 1014.0
20260507110009 54 128 0.0 2.6 0.00 0.00 0.00 29 1014.0
20260507105508 54 328 0.0 4.3 0.00 0.00 0.00 29 1014.0
20260507105008 55 128 0.0 0.9 0.00 0.00 0.00 33 1014.0
20260507104511 54 265 0.0 3.5 0.00 0.00 0.00 31 1014.0
20260507104004 54 137 0.0 3.5 0.00 0.00 0.00 33 1014.0
20260507103504 54 136 0.0 3.5 0.00 0.00 0.00 35 1013.9
20260507103003 54 238 0.0 0.0 0.00 0.00 0.00 31 1014.0
20260507102505 54 290 0.0 0.0 0.00 0.00 0.00 30 1013.9
20260507102003 54 203 0.0 0.0 0.00 0.00 0.00 30 1013.9
20260507101600 54 272 0.0 0.0 0.00 0.00 0.00 32 1013.9
20260507101059 54 230 0.0 0.0 0.00 0.00 0.00 34 1014.0
20260507100559 54 250 0.0 0.0 0.00 0.00 0.00 39 1014.0
20260507100059 53 118 0.0 0.9 0.00 0.00 0.00 35 1014.0
20260507095557 53 227 0.0 0.9 0.00 0.00 0.00 38 1013.9
20260507095056 53 277 0.0 0.9 0.00 0.00 0.00 37 1013.9
20260507094555 53 25 0.0 0.9 0.00 0.00 0.00 37 1013.9
20260507094053 53 276 0.0 0.9 0.00 0.00 0.00 35 1014.0
20260507093552 52 121 0.0 0.9 0.00 0.00 0.00 40 1014.0
20260507093051 52 225 0.0 0.9 0.00 0.00 0.00 40 1014.0
20260507092550 52 217 0.0 1.7 0.00 0.00 0.00 38 1014.0
20260507092048 52 229 0.0 4.3 0.00 0.00 0.00 39 1014.0
20260507091548 51 261 0.0 0.9 0.00 0.00 0.00 41 1013.9
20260507091049 51 103 0.0 0.0 0.00 0.00 0.00 39 1013.9
20260507090549 51 329 0.0 0.0 0.00 0.00 0.00 39 1013.9
20260507090048 51 273 0.0 0.0 0.00 0.00 0.00 37 1014.0
20260507085548 51 263 0.0 0.0 0.00 0.00 0.00 39 1014.0
20260507085046 51 291 0.0 0.9 0.00 0.00 0.00 41 1014.1
20260507084551 51 289 0.0 0.9 0.00 0.00 0.00 39 1014.1
20260507084044 51 300 0.0 0.0 0.00 0.00 0.00 42 1014.1
20260507083544 50 265 0.0 0.0 0.00 0.00 0.00 43 1014.1
20260507083048 50 261 0.0 0.0 0.00 0.00 0.00 43 1014.1
20260507082544 49 209 0.0 0.0 0.00 0.00 0.00 43 1014.2
20260507082042 49 316 0.0 0.0 0.00 0.00 0.00 44 1014.1
20260507081538 48 316 0.0 0.9 0.00 0.00 0.00 43 1014.1
20260507081040 48 355 0.0 0.0 0.00 0.00 0.00 43 1014.2
20260507080535 48 244 0.0 0.0 0.00 0.00 0.00 45 1014.1
20260507080033 48 14 0.0 0.0 0.00 0.00 0.00 46 1014.1
20260507075532 47 17 0.0 0.0 0.00 0.00 0.00 49 1014.1
20260507075033 47 34 0.0 0.9 0.00 0.00 0.00 48 1014.1
20260507074530 46 53 0.0 0.9 0.00 0.00 0.00 51 1014.1
20260507074028 45 245 0.0 2.6 0.00 0.00 0.00 51 1014.1
20260507073527 45 326 0.0 2.6 0.00 0.00 0.00 50 1014.2
20260507073025 45 23 0.0 1.7 0.00 0.00 0.00 53 1014.2
20260507072524 44 36 0.0 0.9 0.00 0.00 0.00 52 1014.2
20260507072022 44 33 0.0 0.9 0.00 0.00 0.00 53 1014.2
20260507071521 44 5 0.0 0.9 0.00 0.00 0.00 55 1014.2
20260507071025 43 15 0.0 0.9 0.00 0.00 0.00 55 1014.3
20260507070518 43 26 0.0 1.7 0.00 0.00 0.00 56 1014.2
20260507070017 42 12 0.0 1.7 0.00 0.00 0.00 56 1014.3
20260507065519 42 5 0.0 0.0 0.00 0.00 0.00 57 1014.3
20260507065014 42 11 0.0 0.0 0.00 0.00 0.00 59 1014.2
20260507064512 41 360 0.0 0.0 0.00 0.00 0.00 64 1014.2
20260507064012 40 360 0.0 0.0 0.00 0.00 0.00 61 1014.2
20260507063508 40 360 0.0 0.9 0.00 0.00 0.00 67 1014.3
20260507063007 39 360 0.0 0.0 0.00 0.00 0.00 69 1014.3
20260507062506 38 360 0.0 0.0 0.00 0.00 0.00 70 1014.4
20260507062004 37 360 0.0 0.0 0.00 0.00 0.00 71 1014.3
20260507061504 36 360 0.0 0.9 0.00 0.00 0.00 74 1014.3
20260507061001 35 360 0.0 0.9 0.00 0.00 0.00 76 1014.4
20260507060501 33 360 0.0 0.0 0.00 0.00 0.00 77 1014.4
20260507060104 32 360 0.0 0.0 0.00 0.00 0.00 78 1014.3
20260507055558 31 360 0.0 0.0 0.00 0.00 0.00 79 1014.4
20260507055057 31 360 0.0 0.0 0.00 0.00 0.00 79 1014.4
20260507054606 30 360 0.0 0.0 0.00 0.00 0.00 80 1014.3
20260507054055 30 360 0.0 0.0 0.00 0.00 0.00 80 1014.3
20260507053555 30 360 0.0 0.0 0.00 0.00 0.00 80 1014.2
20260507053056 30 360 0.0 0.0 0.00 0.00 0.00 80 1014.2
20260507052537 30 360 0.0 0.0 0.00 0.00 0.00 80 1014.2
20260507052036 29 360 0.0 0.0 0.00 0.00 0.00 81 1014.2
20260507051536 29 360 0.0 0.0 0.00 0.00 0.00 81 1014.1
20260507051034 29 360 0.0 0.0 0.00 0.00 0.00 81 1014.2
20260507050534 29 360 0.0 0.0 0.00 0.00 0.00 81 1014.1
20260507050034 29 360 0.0 0.0 0.00 0.00 0.00 81 1014.1
20260507045534 29 360 0.0 0.0 0.00 0.00 0.00 80 1014.1
20260507045033 30 360 0.0 0.0 0.00 0.00 0.00 80 1014.0
20260507044533 30 360 0.0 0.0 0.00 0.00 0.00 79 1014.0
20260507044031 30 360 0.0 0.0 0.00 0.00 0.00 78 1013.9
20260507043530 30 360 0.0 0.0 0.00 0.00 0.00 77 1013.9
20260507043036 31 360 0.0 0.0 0.00 0.00 0.00 77 1013.8
20260507042530 31 360 0.0 0.0 0.00 0.00 0.00 76 1013.7
20260507042028 31 360 0.0 0.0 0.00 0.00 0.00 77 1013.7
20260507041527 30 360 0.0 0.0 0.00 0.00 0.00 77 1013.7
20260507041027 30 360 0.0 0.0 0.00 0.00 0.00 78 1013.7
20260507040526 30 5 0.0 0.0 0.00 0.00 0.00 79 1013.7
20260507040025 29 5 0.0 0.0 0.00 0.00 0.00 79 1013.6
20260507035525 29 5 0.0 0.0 0.00 0.00 0.00 79 1013.6
20260507035024 29 5 0.0 0.0 0.00 0.00 0.00 79 1013.6
20260507034522 29 5 0.0 0.0 0.00 0.00 0.00 78 1013.5
20260507034021 29 5 0.0 0.0 0.00 0.00 0.00 77 1013.5
20260507033520 30 5 0.0 0.0 0.00 0.00 0.00 76 1013.4
20260507033019 30 5 0.0 0.0 0.00 0.00 0.00 76 1013.4
20260507032519 31 5 0.0 0.0 0.00 0.00 0.00 75 1013.3
20260507032020 31 5 0.0 0.0 0.00 0.00 0.00 74 1013.3
20260507031514 32 5 0.0 0.0 0.00 0.00 0.00 72 1013.3
20260507031013 32 5 0.0 0.0 0.00 0.00 0.00 71 1013.2
20260507030512 32 5 0.0 0.0 0.00 0.00 0.00 71 1013.2
20260507030012 33 5 0.0 0.0 0.00 0.00 0.00 69 1013.2
20260507025509 33 5 0.0 0.0 0.00 0.00 0.00 68 1013.2
20260507025010 33 5 0.0 0.0 0.00 0.00 0.00 68 1013.2
20260507024509 33 355 0.0 3.5 0.00 0.00 0.00 68 1013.1
20260507024008 33 5 0.0 3.5 0.00 0.00 0.00 68 1013.2
20260507023509 33 18 0.0 0.9 0.00 0.00 0.00 69 1013.2
20260507023006 33 26 0.0 0.9 0.00 0.00 0.00 69 1013.1
20260507022506 33 16 0.0 0.0 0.00 0.00 0.00 68 1013.1
20260507022004 33 16 0.0 0.9 0.00 0.00 0.00 67 1013.0
20260507021509 34 16 0.0 0.9 0.00 0.00 0.00 67 1012.9
20260507021002 34 20 0.0 0.9 0.00 0.00 0.00 66 1013.0
20260507020501 34 355 0.0 1.7 0.00 0.00 0.00 65 1012.9
20260507020002 35 37 0.0 1.7 0.00 0.00 0.00 65 1012.9
20260507015500 34 15 0.0 2.6 0.00 0.00 0.00 65 1012.8
20260507015100 34 5 0.0 2.6 0.00 0.00 0.00 65 1012.8
20260507014609 34 344 0.0 0.9 0.00 0.00 0.00 67 1012.8
20260507014059 34 344 0.0 2.6 0.00 0.00 0.00 66 1012.9
20260507013558 34 336 0.0 2.6 0.00 0.00 0.00 66 1012.8
20260507013058 34 22 0.0 0.0 0.00 0.00 0.00 66 1012.8
20260507012557 34 339 0.0 0.0 0.00 0.00 0.00 66 1012.8
20260507012056 34 339 0.0 0.0 0.00 0.00 0.00 65 1012.7
20260507011603 35 338 0.0 0.0 0.00 0.00 0.00 65 1012.6
20260507011055 35 343 0.0 2.6 0.00 0.00 0.00 65 1012.7
20260507010555 35 338 0.0 2.6 0.00 0.00 0.00 64 1012.6
20260507010056 36 335 0.0 2.6 0.00 0.00 0.00 63 1012.5
20260507005554 36 341 0.0 1.7 0.00 0.00 0.00 63 1012.5
20260507005057 36 5 0.0 1.7 0.00 0.00 0.00 61 1012.5
20260507004553 36 319 0.0 0.9 0.00 0.00 0.00 62 1012.4
20260507004052 36 9 0.0 0.9 0.00 0.00 0.00 61 1012.4
20260507003551 36 33 0.0 1.7 0.00 0.00 0.00 62 1012.4
20260507003050 36 22 0.0 2.6 0.00 0.00 0.00 62 1012.3
20260507002551 36 34 0.0 2.6 0.00 0.00 0.00 63 1012.3
20260507002051 35 53 0.0 1.7 0.00 0.00 0.00 66 1012.3
20260507001605 34 19 0.0 1.7 0.00 0.00 0.00 67 1012.3
20260507001048 34 19 0.0 0.0 0.00 0.00 0.00 68 1012.2
20260507000549 34 19 0.0 0.0 0.00 0.00 0.00 67 1012.1
20260507000056 34 13 0.0 0.0 0.00 0.00 0.00 68 1012.2
20260506235547 34 13 0.0 0.0 0.00 0.00 0.00 67 1012.2
20260506235048 34 13 0.0 0.0 0.00 0.00 0.00 68 1012.2
20260506234546 34 13 0.0 0.0 0.00 0.00 0.00 67 1012.1
20260506234045 35 13 0.0 0.0 0.00 0.00 0.00 68 1012.1